Flag for Australia Weather past 2 weeks in Perth, Western Australia, Australia

Now
61 °F

Clear.


Feels Like: 61 °F
Forecast: 57 / 70 °F
Wind: 6 mph from South

Location: Belmont Perth Airport

Current Time: Sep 2, 2014 at 10:21:08 PM

Latest Report: Sep 2, 2014 at 9:30 PM


Visibility: 10 mi

Pressure: 30.09 "Hg

Humidity: 77%

Dew point: 54 °F

Location of PerthLocation

Historic Weather in Perth — Graph

°F

Perth temperature yesterday

Maximum temperature yesterday: 64 °F (at 1:00 PM)
Minimum temperature yesterday: 46 °F (at 12:00 AM)
Average temperature yesterday: 57 °F

Past Weeks' High & Low Weather Summary

 TemperatureHumidityPressure
High77 °F (Aug 28, 1:00 PM)100% (Aug 18, 11:00 PM)30.24 "Hg (Aug 18, 11:00 PM)
Low45 °F (Aug 24, 3:00 AM)25% (Aug 28, 1:30 PM)29.77 "Hg (Aug 21, 5:30 AM)
Average59 °F75%30.06 "Hg
* Reported Aug 18 9:00 PM — Sep 2 9:00 PM, Perth, Weather by CustomWeather, © 2014

Note: Actual official high and low records may vary slightly from our data, if they occured in-between our weather recording intervals... More about our weather records

Advertising

Perth weather history for previous 24 hours

 ConditionsComfort  
Time TempWeatherWind HumidityBarometerVisibility
9:00 PM
Sep 2
61 °FClear.6 mph77%30.09 "Hg10 mi
8:30 PM61 °FClear.5 mph83%30.09 "Hg10 mi
8:00 PM63 °FClear.6 mph77%30.09 "Hg10 mi
7:30 PM63 °FClear.7 mph77%30.07 "Hg10 mi
7:00 PM64 °FClear.8 mph68%30.07 "Hg10 mi
6:30 PM64 °FClear.7 mph73%30.04 "Hg10 mi
6:00 PM64 °FClear.8 mph73%30.04 "Hg10 mi
5:30 PM64 °FClear.7 mph73%30.04 "Hg10 mi
5:00 PM64 °FClear.7 mph73%30.01 "Hg10 mi
4:30 PM66 °FSunny.7 mph68%30.01 "Hg10 mi
4:00 PM66 °FLight rain. Partly sunny.10 mph68%29.98 "HgN/A
3:30 PM66 °FLight rain. Partly sunny.10 mph60%29.98 "HgN/A
3:00 PM68 °FLight rain. Partly sunny.9 mph60%29.98 "HgN/A
2:30 PM70 °FSunny.7 mph57%29.98 "Hg10 mi
2:00 PM68 °FSunny.5 mph56%29.98 "Hg10 mi
1:30 PM68 °FSunny.8 mph56%29.98 "Hg10 mi
1:00 PM68 °FSunny.8 mph60%29.95 "Hg10 mi
12:30 PM68 °FSunny.5 mph60%29.95 "Hg10 mi
12:00 PM66 °FLight rain. Partly sunny.1 mph60%29.98 "HgN/A
11:30 AM64 °FBroken clouds.2 mph64%29.98 "HgN/A
11:00 AM63 °FSprinkles. Sunny.5 mph68%30.01 "Hg10 mi
10:30 AM63 °FSprinkles. Broken clouds.5 mph68%30.01 "HgN/A
10:00 AM63 °FSprinkles. Broken clouds.5 mph59%30.04 "HgN/A
9:30 AM63 °FSunny.1 mph59%30.04 "Hg10 mi
9:00 AM61 °FSunny.7 mph59%30.01 "Hg10 mi
8:30 AM59 °FSunny.8 mph63%30.04 "Hg10 mi
8:00 AM59 °FSunny.14 mph59%29.98 "Hg10 mi
7:30 AM57 °FSunny.12 mph63%30.01 "Hg10 mi
7:00 AM55 °FSunny.10 mph67%30.04 "Hg10 mi
6:30 AM55 °FSunny.8 mph67%30.04 "Hg10 mi
6:00 AM55 °FSunny.9 mph63%30.01 "Hg10 mi
5:30 AM57 °FClear.6 mph63%30.01 "Hg10 mi
5:00 AM57 °FClear.7 mph59%30.01 "Hg10 mi
4:30 AM57 °FClear.8 mph59%30.01 "Hg10 mi
4:00 AM57 °FClear.7 mph59%30.01 "Hg10 mi
3:30 AM57 °FClear.8 mph59%30.01 "Hg10 mi
3:00 AM59 °FClear.6 mph55%30.01 "Hg10 mi
2:30 AM57 °FClear.6 mph63%30.04 "Hg10 mi
2:00 AM57 °FClear.7 mph59%30.04 "Hg10 mi
1:30 AM57 °FClear.9 mph59%30.04 "Hg10 mi
1:00 AM57 °FClear.10 mph55%30.07 "Hg10 mi
12:00 AM59 °FClear.10 mph51%30.07 "Hg10 mi
11:30 PM
Sep 1
57 °FClear.12 mph55%30.07 "Hg10 mi
11:00 PM57 °FClear.10 mph55%30.09 "Hg10 mi
10:30 PM59 °FClear.10 mph51%30.09 "Hg10 mi
10:00 PM59 °FClear.8 mph51%30.09 "Hg10 mi
Weather by CustomWeather, © 2014

See weather overviewHow to use our weather pages